Погода в Славгороде

Хотите узнать прогноз погоды в Славгороде? Тогда Вам сюда: Погода в Славгороде

Поиск расширенной информации на нашем сайте:

Полезная информация:

Новости сайта



02.01.2020
Опубликован Долгосрочный прогноз погоды по городам России и ближнего зарубежья на январь 2020 года.
Карты: Прогноз на январь и февраль 2020 года, Сравнение прогнозируемой аномалии приземной температуры воздуха на январь 2020 года по разным моделям.




Погода в Славгороде - сегодня

Время (UTC), дата Ветер
(°,м/с) 
Видим.   Явления Облачность Т
(°С)
Тd
(°С)
f(%) Тe
(°С)
Pmin
(гПа)
dP
(гПа)
Po
(мм)
O2
(г/м3)
Тmin Tmax R s Состояние
почвы
15 16.04.21 280 (З) 20000 м    3/0 средняя 
[Ac trans]
+14.1 -0.3 37 +14  1013.6  -0.1  749  287           
18 16.04.21 020 (С) 7-11{12}  20000 м    8/0 средняя 
[Ac trans]
+6.3 +0.6 67 +4  1015.8  1.7  750  295           
21 16.04.21 020 (С) 6-10{11}  20000 м    1/0 средняя 
[Ac trans]
+2 -1 80 -1  1018.4  2.3  752  301           
00 17.04.21 020 (С) 3{10}  20000 м    4/0 средняя, верхняя 
[Ac trans|Ci sp]
+1 -3.1 74 -1  1021.1  2.6  754  303  +1         
03 17.04.21 040 (СВ) 6{10}  20000 м    ясно 
+4.3 -3.3 58 +2  1023.1  2.2  756  300  +0.8         
06 17.04.21 040 (СВ) 4{10}  20000 м    8/8 800 м 
[Cu hum]
+7.2 -5.6 40 +6  1024.3  1.3  757  298           
09 17.04.21 010 (С) 20000 м    1/1 600 м 
[Cu hum]
+8.6 -7.6 31 +8  1023.9  -0.2  756  296           
12 17.04.21 060 (СВ) 20000 м    ясно 
+8 -9.2 28 +8  1023.2  -0.8  756  297    +8.9       
15 17.04.21 030 (СВ) 20000 м    ясно 
+3.6 -8 42 +4  1023.2  -0.3  756  301           
18 17.04.21 160 (Ю) 20000 м    ясно 
+1 -7.2 54 1022.4  -0.9  755  304           
21 17.04.21 170 (Ю) 20000 м    ясно 
-3 -6.5 77 -4  1020.6  -1.9  753  308           
00 18.04.21 200 (Ю) 20000 м    ясно 
-3 -6.5 77 -5  1019.3  -1.4  752  307  -3.9         
03 18.04.21 200 (Ю) 20000 м    6/0 средняя 
[Ac trans]
+7.5 -4.5 42 +6  1016.7  -1.9  751  295           
06 18.04.21 210 (ЮЗ) 8-11{11}  20000 м    8/4 600 м кучево-дожд., средняя 
[Cb cap|Ac trans]
+12 -7 26 +10  1013.3  -3.1  749  290           
09 18.04.21 280 (З) 8-13{16}  20000 м    4/3 1000 м верхняя 
[Cu hum|Ci sp]
+15.5 -3.2 27 +15  1010.6  -2.5  747  285           
12 18.04.21 280 (З) 5{16}  20000 м    10/3 600 м кучево-дожд., верхняя 
[Cb cap|Ci sp]
+13.7 -6.1 25 +13  1009.3  -1.3  746  287    +15.7       
15 18.04.21 300 (СЗ) 2{14}  20000 м  слаб. ливневой дождь  10/10 600 м кучево-дожд. 
[Cb cap]
+8.6 +4.9 78 +9  1008.4  -1.2  745  290           
18 18.04.21 290 (З) 7-10{10}  20000 м  слаб. ливневой дождь  10/10 600 м кучево-дожд. 
[Cb cap]
+6.8 +3.7 81 +4  1008.2  -0.3  745  292           
21 18.04.21 340 (С) 8-14{16}  20000 м  {ливн. осадки}  4/0 верхняя 
[Ci sp]
-4.3 -8.8 71 -9  1014.2  5.2  749  307           
00 19.04.21 350 (С) 7-13{14}  20000 м  {ливн. осадки}  10/8 660 м кучево-дожд., верхняя 
[Cb cap|Ci sp]
-5.7 -11.2 65 -11  1018.5  4.2  752  310  -5.8    0.9     
03 19.04.21 340 (С) 6-10{13}  20000 м    4/4 600 м кучево-дожд. 
[Cb cap]
-5.1 -12.2 57 -10  1022.4  3.8  755  311           
06 19.04.21 350 (С) 5{11}  20000 м    6/6 930 м 
[Cu hum]
-2.1 -11.9 47 -5  1024.1  1.9  756  308           
09 19.04.21 340 (С) 4{10}  20000 м    1/1 600 м 
[Cu hum]
+0.4 -18.3 23 -2  1024.3  0.3  756  306           
12 19.04.21 360 (С) 20000 м    ясно 
+0.1 -18.6 23 -2  1024.6  0.2  756  306    +0.8       
15 19.04.21 020 (С) 20000 м    ясно 
-4 -14.4 44 -6  1026  1.2  757  311           
Время (UTC), дата Ветер
(°,м/с) 
Видим.   Явления Облачность Т
(°С)
Тd
(°С)
f(%) Тe
(°С)
Pmin
(гПа)
dP
(гПа)
Po
(мм)
O2
(г/м3)
Тmin Tmax R s Состояние
почвы

Для получения пояснительной информации подведите курсор к названию столбца.

ПОГОДА в Славгороде - архив

Всё, что Вы хотите узнать о погоде в Славгороде - удобно и подробно!

Выберите нужную дату (начиная с 1 января 2019* года) и нажмите кнопку "Найти".
Будут отображены архивные сводки погоды по пункту Славгород, начиная с указанной даты.


Отображать данные в формате CSV (для использования в таблицах Excel)


Внимание! Наш архив погоды предназначен исключительно для личного некоммерческого использования в познавательных целях. Если Вам необходимы официальные справки о состоянии погоды (для производственных, юридических, коммерческих и т.п. целей), обращайтесь в органы Росгидромета.

*Примечание: данная дата относится к архиву по метеостанциям СССР (Россия, СНГ, Балтия).
Архив по метеостанциям Зарубежной Европы и Азии (кроме Китая) хранится 10 дней, по другим регионам земного шара (Китай, Африка, Америка, Австралия, Океания) - 1 день.

Славгород - район местоположения метеостанции


Название, широта, долгота, высота метеостанции:
Славгород 53°ш. 78.6°д. 126 м над ур. моря [Российская Федерация]

Дополнительная информация

В oтличие oт бoльшинства пoгoдных сайтoв мы публикуем пoдрoбную метеoинфoрмацию в детальнoм прoфессиoнальнoм фoрмате.

Характеристики температуры и влажнoсти вoздуха измеряются на высoте 2 м в тени вдали oт зданий и деревьев.
Скoрoсть ветра измеряется на высoте 10 м (на урoвне рoста челoвека скoрoсть ветра ниже в 1.5-2 раза). Если метеoстанция нахoдится в гoрoде или в лесу, тo скoрoсть ветра занижена на 2-4 м/с пo сравнению с oткрытым местoм. Скoрoсть ветра над акватoриями крупных рек и oзёр, а также на вершинах хoлмoв на 2-5 м/с выше, чем в oбычных услoвиях.
Атмoсфернoе давление в разных тoчках местнoсти мoжет значительнo oтличаться oт давления на метеoстанции, в зависимoсти oт услoвий рельефа (при пoдъёме на 10 м давление пoнижается примернo на 1 мм рт.ст.).